Malaga, Spain

5:36 PM CEST on July 23, 2018 (GMT +0200)
Malaga

Weather History for LEMG - April, 2018

Change the Weather History Date:

Tuesday, April 17, 2018

  Actual Average Record
Temperature  
Mean Temperature 60 °F -  
Max Temperature 70 °F 72 °F 80 °F (2005)
Min Temperature 51 °F 54 °F 48 °F (2002)
Degree Days  
Heating Degree Days 4    
Growing Degree Days 10 (Base 50)    
Moisture  
Dew Point 48 °F    
Average Humidity 55    
Maximum Humidity 82    
Minimum Humidity 36    
Precipitation  
Precipitation 0.00 in 0.04 in - ()
Sea Level Pressure  
Sea Level Pressure 30.20 in    
Wind  
Wind Speed 12 mph ()    
Max Wind Speed 21 mph    
Max Gust Speed 28 mph    
Visibility 16.1 miles    
Events      
Averages and records for this station are not official NWS values.
T = Trace of Precipitation, MM = Missing Value Source: Averaged Metar Reports

Daily Weather History Graph

Daily Weather History Graph

Search for Another Location

Airport or City:

Astronomy

Apr. 17, 2018 Rise Set
Actual Time 7:41 AM CEST 8:53 PM CEST
Civil Twilight 7:14 AM CEST 9:20 PM CEST
Nautical Twilight 6:43 AM CEST 9:52 PM CEST
Astronomical Twilight 6:09 AM CEST 10:26 PM CEST
Moon 8:52 AM CEST (4/17) 10:33 PM CEST (4/17)
Length of Visible Light 14h 05m
Length of Day
13h 12m
New Moon, 2% of the Moon is Illuminated
Apr 17
New Moon
Apr 22
First Quarter
Apr 30
Full
May 8
Last Quarter
May 15
New

Hourly Weather History & Observations

Time (CEST) Temp. Dew Point Humidity Pressure Visibility Wind Dir Wind Speed Gust Speed Precip Events Conditions
12:00 AM 62.6 °F 46.4 °F 55% 30.12 in - West 20.7 mph - N/A   Clear
12:30 AM 62.6 °F 46.4 °F 55% 30.12 in - West 19.6 mph - N/A   Clear
1:00 AM 62 °F 45 °F 42% 30.14 in - West 20.7 mph - -  
1:00 AM 62.6 °F 44.6 °F 52% 30.12 in - West 19.6 mph - N/A   Clear
1:30 AM 62.6 °F 44.6 °F 52% 30.12 in - West 19.6 mph - N/A   Clear
2:00 AM 62 °F 45 °F 42% 30.15 in 9 mi West 17.3 mph - -   Clear
2:00 AM 62.6 °F 46.4 °F 55% 30.12 in - West 17.3 mph - N/A   Clear
2:30 AM 62.6 °F 44.6 °F 52% 30.15 in - West 16.1 mph - N/A   Clear
3:00 AM 62 °F 45 °F 43% 30.16 in - West 16.1 mph - -  
3:00 AM 62.6 °F 44.6 °F 52% 30.15 in - West 16.1 mph - N/A   Clear
3:30 AM 62.6 °F 44.6 °F 52% 30.15 in - WNW 11.5 mph 27.6 mph N/A   Clear
4:00 AM 62 °F 45 °F 43% 30.16 in - West 17.3 mph - -  
4:00 AM 60.8 °F 44.6 °F 55% 30.15 in - West 17.3 mph - N/A   Clear
4:30 AM 60.8 °F 44.6 °F 55% 30.15 in - West 13.8 mph - N/A   Clear
5:00 AM 59 °F 45 °F 50% 30.17 in 9 mi WNW 13.8 mph - -   Clear
5:00 AM 59.0 °F 46.4 °F 63% 30.15 in - WNW 12.7 mph - N/A   Clear
5:30 AM 53.6 °F 46.4 °F 77% 30.15 in - NW 13.8 mph - N/A   Clear
6:00 AM 57 °F 46 °F 57% 30.17 in - NNW 13.8 mph - -  
6:00 AM 53.6 °F 46.4 °F 77% 30.15 in - NNW 13.8 mph - N/A   Clear
6:30 AM 55.4 °F 46.4 °F 72% 30.15 in - NNW 15.0 mph - N/A   Clear
7:00 AM 53.6 °F 46.4 °F 77% 30.18 in - NW 13.8 mph - N/A   Clear
7:30 AM 51.8 °F 46.4 °F 82% 30.18 in - NW 13.8 mph - N/A   Clear
8:00 AM 51.8 °F 46.4 °F 82% 30.18 in - NW 13.8 mph - N/A   Clear
8:30 AM 51.8 °F 46.4 °F 82% 30.18 in - NW 11.5 mph - N/A   Clear
9:00 AM 56 °F 47 °F 63% 30.22 in 16 mi NW 12.7 mph - -   Clear
9:00 AM 55.4 °F 48.2 °F 77% 30.21 in - NW 11.5 mph - N/A   Clear
9:30 AM 55.4 °F 50.0 °F 82% 30.21 in - NW 10.4 mph - N/A   Clear
10:00 AM 59 °F 49 °F 60% 30.24 in - WNW 9.2 mph - -  
10:00 AM 59.0 °F 50.0 °F 72% 30.21 in - WNW 8.1 mph - N/A   Clear
10:30 AM 60.8 °F 51.8 °F 72% 30.24 in - WNW 5.8 mph - N/A   Clear
11:00 AM 65 °F 47 °F 42% 30.25 in 19 mi WNW 2.3 mph - -   Clear
11:00 AM 64.4 °F 51.8 °F 64% 30.24 in - Variable 2.3 mph - N/A   Clear
11:30 AM 68.0 °F 48.2 °F 49% 30.24 in - East 4.6 mph - N/A   Clear
12:00 PM 69 °F 51 °F 42% 30.26 in - ESE 4.6 mph - -  
12:00 PM 66.2 °F 46.4 °F 49% 30.24 in - ESE 4.6 mph - N/A   Clear
12:30 PM 68.0 °F 51.8 °F 56% 30.24 in - ESE 3.5 mph - N/A   Clear
1:00 PM 69 °F 49 °F 37% 30.26 in - ESE 8.1 mph - -  
1:00 PM 68.0 °F 50.0 °F 52% 30.24 in - East 6.9 mph - N/A   Clear
1:30 PM 68.0 °F 50.0 °F 52% 30.24 in - ESE 6.9 mph - N/A   Clear
2:00 PM 68 °F 49 °F 40% 30.25 in 19 mi ESE 8.1 mph - -   Clear
2:00 PM 68.0 °F 50.0 °F 52% 30.24 in - ESE 8.1 mph - N/A   Clear
2:30 PM 68.0 °F 50.0 °F 52% 30.24 in - ESE 6.9 mph - N/A   Clear
3:00 PM 70 °F 49 °F 36% 30.25 in 19 mi ESE 8.1 mph - -   Clear
3:00 PM 68.0 °F 50.0 °F 52% 30.24 in - ESE 6.9 mph - N/A   Clear
3:30 PM 69.8 °F 50.0 °F 49% 30.24 in - ESE 9.2 mph - N/A   Clear
4:00 PM 70 °F 50 °F 38% 30.24 in - ESE 10.4 mph - -  
4:00 PM 68.0 °F 48.2 °F 49% 30.24 in - ESE 10.4 mph - N/A   Clear
4:30 PM 68.0 °F 50.0 °F 52% 30.21 in - ESE 9.2 mph - N/A   Clear
5:00 PM 69 °F 48 °F 37% 30.23 in 19 mi ESE 9.2 mph - -   Clear
5:00 PM 68.0 °F 50.0 °F 52% 30.21 in - ESE 8.1 mph - N/A   Clear
5:30 PM 68.0 °F 50.0 °F 52% 30.21 in - ESE 8.1 mph - N/A   Clear
6:00 PM 70 °F 50 °F 38% 30.22 in - ESE 6.9 mph - -  
6:00 PM 68.0 °F 50.0 °F 52% 30.21 in - ESE 5.8 mph - N/A   Clear
6:30 PM 66.2 °F 50.0 °F 56% 30.21 in - ESE 4.6 mph - N/A   Clear
7:00 PM 69 °F 51 °F 42% 30.22 in - ESE 5.8 mph - -  
7:00 PM 66.2 °F 50.0 °F 56% 30.21 in - ESE 4.6 mph - N/A   Clear
7:30 PM 66.2 °F 48.2 °F 52% 30.21 in - ESE 3.5 mph - N/A   Clear
8:00 PM 68 °F 49 °F 40% 30.21 in 19 mi ESE 3.5 mph - -   Clear
8:00 PM 64.4 °F 48.2 °F 56% 30.21 in - ESE 3.5 mph - N/A   Clear
8:30 PM 62.6 °F 50.0 °F 63% 30.21 in - ESE 2.3 mph - N/A   Clear
9:00 PM 64 °F 48 °F 46% 30.22 in - SE 1.2 mph - -  
9:00 PM 62.6 °F 48.2 °F 59% 30.21 in - ESE 1.2 mph - N/A   Clear
9:30 PM 62.6 °F 46.4 °F 55% 30.21 in - Variable 1.2 mph - N/A   Clear
10:00 PM 62 °F 47 °F 48% 30.24 in - SSE 4.6 mph - -  
10:00 PM 62.6 °F 46.4 °F 55% 30.21 in - SSE 4.6 mph - N/A   Clear
10:30 PM 62.6 °F 46.4 °F 55% 30.24 in - South 5.8 mph - N/A   Clear
11:00 PM 60.8 °F 46.4 °F 59% 30.24 in - SSE 3.5 mph - N/A   Clear
11:30 PM 60.8 °F 46.4 °F 59% 30.24 in - Variable 2.3 mph - N/A   Clear